This is the latest recevied weather packets stored in our database for station/object KGTR. If no packets are shown the sender has not sent any weather packets the latest 10 day(s).
| Time | Temp. | Humidity | Pressure | Rain* | Wind** | Luminosity | Snow |
|---|---|---|---|---|---|---|---|
| 1788626609 | 33.89° C | 56% | 1014.9 hPa | - | - | - | - |
| 1788626013 | 33.89° C | 56% | 1014.9 hPa | - | - | - | - |
| 1788625406 | 33.89° C | 56% | 1014.9 hPa | - | - | - | - |
| 1788624806 | 33.89° C | 56% | 1014.9 hPa | - | - | - | - |
| 1788624223 | 33.89° C | 56% | 1014.9 hPa | - | - | - | - |
| 1788623611 | 31.67° C | 62% | 1015.2 hPa | - | - | - | - |
| 1788623007 | 31.67° C | 62% | 1015.2 hPa | - | - | - | - |
| 1788622438 | 31.67° C | 62% | 1015.2 hPa | - | - | - | - |
| 1788621810 | 31.67° C | 62% | 1015.2 hPa | - | - | - | - |
| 1788621206 | 31.67° C | 62% | 1015.2 hPa | - | - | - | - |
| 1788620609 | 31.67° C | 62% | 1015.2 hPa | - | - | - | - |
| 1788620011 | 28.89° C | 74% | 1014.9 hPa | - | - | - | - |
| 1788619407 | 28.89° C | 74% | 1014.9 hPa | - | - | - | - |
| 1788618808 | 28.89° C | 74% | 1014.9 hPa | - | - | - | - |
| 1788618207 | 28.89° C | 74% | 1014.9 hPa | - | - | - | - |
| 1788617606 | 28.89° C | 74% | 1014.9 hPa | - | - | - | - |
| 1788617008 | 28.89° C | 74% | 1014.9 hPa | - | - | - | - |
| 1788616409 | 27.78° C | 78% | 1014.9 hPa | - | - | - | - |
| 1788615806 | 25.56° C | 83% | 1015.2 hPa | - | - | - | - |
| 1788615205 | 25.56° C | 83% | 1015.2 hPa | - | - | - | - |
| 1788614606 | 25.56° C | 83% | 1015.2 hPa | - | - | - | - |
| 1788614007 | 25.56° C | 83% | 1015.2 hPa | - | - | - | - |
| 1788613409 | 25.56° C | 83% | 1015.2 hPa | - | - | - | - |
| 1788612808 | 22.78° C | 100% | 1014.9 hPa | - | - | - | - |
| 1788612206 | 22.78° C | 100% | 1014.9 hPa | - | - | - | - |
* Rain since midnight (hover to see other rain measurements)
** Current wind speed in m/s (hover to see current wind gust speed)